Regional Weather Roundup
Issued by NWS Jackson, KY

Home | Current Version | Previous Version | Text Only | Print | Product List | Glossary On
Versions: 1 2 3 4 5 6 7 8 9 10 11 12 13 14 15 16 17 18 19 20 21 22 23 24 25 26 27 28 29 30 31 32 33 34 35 36 37 38 39 40 41 42 43 44 45 46 47 48 49 50
000
ASUS43 KJKL 220110
RWRJKL

EAST KENTUCKY HOURLY WEATHER ROUNDUP
NATIONAL WEATHER SERVICE JACKSON KY
800 PM EST TUE FEB 21 2017

NOTE: "FAIR" INDICATES FEW OR NO CLOUDS BELOW 12,000 FEET WITH
NO SIGNIFICANT WEATHER AND/OR OBSTRUCTIONS TO VISIBILITY.

* THESE REPORTS ARE NOT UNDER NWS QUALITY CONTROL AND MAY NOT
  REPORT WEATHER SUCH AS PRECIPITATION AND FOG.

KYZ079-080-083-085-087-088-110-112-115-119-120-220200
...EASTERN KENTUCKY...

CITY           SKY/WX    TMP DP  RH WIND       PRES   REMARKS
JACKSON        CLOUDY    66  43  43 SW3       30.00S
LONDON         CLOUDY    61  50  67 SW3       30.00S
SOMERSET*      RAIN      57  52  82 N3        30.03S
MONTICELLO*    LGT RAIN  59  54  83 VRB5      30.02F
WILLIAMSBURG*  MOCLDY    63  48  59 SW3       30.00F
MIDDLESBORO*   CLOUDY    65  46  48 S5        30.01S
HARLAN APT*    CLOUDY    64  41  42 CALM      30.01F
PIKE CO APT*   CLOUDY    67  38  34 CALM      30.00S
BIG SANDY APT* CLOUDY    66  40  37 CALM      30.00S
MOREHEAD APT*  CLOUDY    64  48  55 NW6       30.02R
ASHLAND*       CLOUDY    63  48  59 CALM      29.97R
$$

KYZ035-036-041-042-044-050-067-078-099-220200
...CENTRAL KENTUCKY...

CITY           SKY/WX    TMP DP  RH WIND       PRES   REMARKS
MT STERLING*   LGT RAIN  63  50  63 W3        30.01S
FLEMING/MASON* LGT RAIN  57  55  93 N6        30.03R
DANVILLE*      CLOUDY    61  52  72 SW7       30.01F
LEXINGTON      CLOUDY    63  51  65 SW8       29.99S
FRANKFORT      CLOUDY    63  51  65 S7        29.97S
LOUISVILLE     CLOUDY    63  54  72 S9        29.97R
LEBANON*       MOCLDY    57  57 100 SE8       29.99F
GLASGOW*       RAIN      60  52  74 SE6       29.97F
BOWLING GREEN  CLOUDY    63  54  72 SE13      29.96S
$$

KYZ091>093-OHZ055-061-077-WVZ005-015-034-035-042-220200
...SOUTHERN OHIO/WEST VIRGINIA...

CITY           SKY/WX    TMP DP  RH WIND       PRES   REMARKS
COVINGTON      LGT RAIN  56  55  97 SE6       29.99S FOG
COLUMBUS       CLOUDY    61  51  70 S7        29.97F
DAYTON         CLOUDY    58  50  75 S10       29.98S
WILMINGTON     LGT RAIN  53  52  96 CALM      30.00S
HUNTINGTON     CLOUDY    67  41  38 E3        29.98S
CHARLESTON     CLOUDY    65  41  41 NE3       29.99F
PINEVILLE*     CLOUDY    60  42  52 MISG      30.08S
BECKLEY        CLOUDY    56  40  55 SE10      30.06S
BLUEFIELD      CLOUDY    53  39  59 S12G20    30.09R
LOGAN CO APT*  CLOUDY    66  34  30 CALM      30.00F
$$

VAZ002-007-008-TNZ017-027-036-066-071-220200
...SOUTHWEST VIRGINIA/EAST TENNESSEE...

CITY           SKY/WX    TMP DP  RH WIND       PRES   REMARKS
WISE*          MOCLDY    59  41  51 CALM      30.07S
JONESVILLE*    MOCLDY    63  45  51 CALM      30.04F
ABINGDON*      PTCLDY    60  44  54 S3        30.07S
BRISTOL        DRIZZLE   61  44  53 SE5       30.05S
MORRISTOWN*    CLOUDY    63  46  55 CALM      30.00F
SEVIERVILLE*   PTCLDY    61  45  55 CALM      29.99F
KNOXVILLE      CLOUDY    63  46  54 NW5       29.99S
LAFOLLETTE*    CLOUDY    59  54  82 CALM      30.03S
OAK RIDGE      CLOUDY    62  50  64 CALM      30.01F
CROSSVILLE     MOCLDY    53  51  93 S3        30.01F
NASHVILLE      LGT RAIN  60  56  86 S6        29.97R
$$

...KEY TO REMARKS...
VSB - VISIBILITY IN MILES
WCI - WIND CHILL INDEX
HX  - HEAT INDEX

$$



USA.gov is the U.S. government's official web portal to all federal, state and local government web resources and services.